Flag for U.S.A. Weather past 2 weeks in Inglewood, California, U.S.A.

Now
65 °F

Clear.


Feels Like: 65 °F
Forecast: 62 / 78 °F
Wind: 3 mph from Southeast

Location: Hawthorne Municipal Airport

Current Time: Oct 22, 2014 at 9:07:08 AM

Latest Report: Oct 22, 2014 at 7:53 AM


Visibility: 9 mi

Pressure: 29.93 "Hg

Humidity: 76%

Dew point: 57 °F

Location of InglewoodLocation

Historic Weather in Inglewood — Graph

°F

Inglewood temperature yesterday

Maximum temperature yesterday: 76 °F (at 12:53 PM)
Minimum temperature yesterday: 66 °F (at 2:53 AM)
Average temperature yesterday: 70 °F

Past Weeks' High & Low Weather Summary

 TemperatureHumidityPressure
High90 °F (Oct 7, 12:53 PM)90% (Oct 7, 6:53 AM)30.02 "Hg (Oct 7, 6:53 AM)
Low63 °F (Oct 17, 5:53 AM)18% (Oct 7, 12:53 PM)29.80 "Hg (Oct 8, 4:53 PM)
Average70 °F73%29.92 "Hg
* Reported Oct 7 6:53 AM — Oct 22 6:53 AM, Inglewood, Weather by CustomWeather, © 2014

Note: Actual official high and low records may vary slightly from our data, if they occured in-between our weather recording intervals... More about our weather records

Advertising

Inglewood weather history for previous 24 hours

 ConditionsComfort  
Time TempWeatherWind HumidityBarometerVisibility
6:53 AM
Oct 22
63 °FClear.No wind84%29.90 "Hg10 mi
5:53 AM63 °FPassing clouds.No wind84%29.89 "Hg10 mi
4:53 AM64 °FClear.No wind84%29.88 "Hg10 mi
3:53 AM64 °FClear.No wind84%29.88 "Hg10 mi
2:53 AM64 °FPassing clouds.No wind87%29.88 "Hg10 mi
1:53 AM65 °FClear.No wind85%29.87 "Hg10 mi
12:53 AM66 °FClear.No wind84%29.87 "Hg10 mi
11:53 PM
Oct 21
67 °FClear.No wind81%29.88 "Hg10 mi
10:53 PM68 °FClear.3 mph82%29.87 "Hg10 mi
9:53 PM69 °FClear.No wind79%29.87 "Hg10 mi
8:53 PM69 °FClear.No wind79%29.85 "Hg10 mi
7:53 PM70 °FClear.No wind81%29.85 "Hg10 mi
6:53 PM70 °FSunny.6 mph76%29.84 "Hg10 mi
5:53 PM71 °FSunny.7 mph76%29.83 "Hg10 mi
4:53 PM73 °FSunny.8 mph69%29.84 "Hg10 mi
3:53 PM74 °FSunny.9 mph67%29.84 "Hg10 mi
2:53 PM74 °FPassing clouds.10 mph69%29.85 "Hg10 mi
1:53 PM75 °FSunny.12 mph54%29.86 "Hg10 mi
12:53 PM76 °FSunny.9 mph50%29.88 "Hg10 mi
11:53 AM74 °FSunny.No wind56%29.90 "Hg10 mi
10:53 AM72 °FSunny.No wind59%29.91 "Hg8 mi
9:53 AM70 °FSunny.5 mph71%29.92 "Hg6 mi
Weather by CustomWeather, © 2014

See weather overviewHow to use our weather pages